Kalaeloa, HI

4:54 PM HST on April 19, 2018 (GMT -1000)
Kalaeloa (John Rodgers Field)

Weather History for PHJR - July, 2014

Change the Weather History Date:

Thursday, July 3, 2014

  Actual Average (PHHI) Record (PHHI)
Temperature  
Mean Temperature 82 °F -  
Max Temperature 90 °F 79 °F 86 °F (2001)
Min Temperature 73 °F 66 °F 62 °F (2003)
Cooling Degree Days 16    
Growing Degree Days 32 (Base 50)    
Moisture  
Dew Point 68 °F    
Average Humidity 68    
Maximum Humidity 87    
Minimum Humidity 40    
Precipitation  
Precipitation 0.03 in - - ()
Sea Level Pressure  
Sea Level Pressure 30.08 in    
Wind  
Wind Speed 3 mph (ENE)    
Max Wind Speed 10 mph    
Max Gust Speed 23 mph    
Visibility 10 miles    
Events Rain    
Averages and records for this station are not official NWS values.
T = Trace of Precipitation, MM = Missing Value Source: NWS Daily Summary

Daily Weather History Graph

Daily Weather History Graph

Search for Another Location

Airport or City:

Astronomy

Jul. 03, 2014 Rise Set
Actual Time 5:54 AM HST 7:18 PM HST
Civil Twilight 5:29 AM HST 7:43 PM HST
Nautical Twilight 5:00 AM HST 8:12 PM HST
Astronomical Twilight 4:29 AM HST 8:43 PM HST
Moon 11:18 AM HST (7/3) 11:36 PM HST (7/3)
Length of Visible Light 14h 13m
Length of Day
13h 23m
Waxing Crescent, 35% of the Moon is Illuminated
Jul 3
Waxing Crescent
Jul 5
First Quarter
Jul 12
Full
Jul 18
Last Quarter
Jul 26
New

Hourly Weather History & Observations

Time (HST) Temp. Heat Index Dew Point Humidity Pressure Visibility Wind Dir Wind Speed Gust Speed Precip Events Conditions
12:53 AM 75.0 °F - 68.0 °F 79% 30.06 in 10.0 mi Calm Calm - N/A   Scattered Clouds
1:53 AM 75.9 °F - 68.0 °F 76% 30.05 in 10.0 mi Calm Calm - 0.00 in Rain Light Rain
2:53 AM 75.9 °F - 68.0 °F 76% 30.05 in 10.0 mi Variable 3.5 mph - 0.00 in   Mostly Cloudy
3:53 AM 75.0 °F - 66.9 °F 76% 30.05 in 10.0 mi Variable 3.5 mph - N/A   Scattered Clouds
4:53 AM 73.9 °F - 70.0 °F 87% 30.05 in 10.0 mi Calm Calm - 0.00 in   Mostly Cloudy
5:53 AM 73.0 °F - 69.1 °F 87% 30.06 in 10.0 mi Calm Calm - 0.00 in   Partly Cloudy
6:53 AM 75.9 °F - 70.0 °F 82% 30.09 in 10.0 mi Variable 3.5 mph - N/A   Mostly Cloudy
7:53 AM 78.1 °F - 70.0 °F 76% 30.11 in 10.0 mi ENE 3.5 mph - N/A   Scattered Clouds
8:20 AM 78.8 °F - 71.6 °F 78% 30.09 in 10.0 mi ESE 4.6 mph - 0.01 in Rain Light Rain
8:53 AM 79.0 °F - 73.0 °F 82% 30.11 in 10.0 mi Calm Calm - 0.03 in   Mostly Cloudy
9:53 AM 84.0 °F 88.4 °F 70.0 °F 63% 30.10 in 10.0 mi Variable 4.6 mph - 0.00 in   Mostly Cloudy
10:53 AM 84.9 °F 87.6 °F 66.9 °F 55% 30.10 in 10.0 mi NE 8.1 mph 18.4 mph N/A   Mostly Cloudy
11:53 AM 88.0 °F 90.3 °F 66.0 °F 48% 30.09 in 10.0 mi ENE 10.4 mph - N/A   Mostly Cloudy
12:53 PM 89.1 °F 90.3 °F 64.0 °F 43% 30.08 in 10.0 mi East 8.1 mph 16.1 mph N/A   Partly Cloudy
1:53 PM 90.0 °F 90.6 °F 63.0 °F 40% 30.06 in 10.0 mi East 8.1 mph 20.7 mph N/A   Partly Cloudy
2:53 PM 87.1 °F 89.9 °F 66.9 °F 51% 30.05 in 10.0 mi ENE 9.2 mph 19.6 mph N/A   Mostly Cloudy
3:53 PM 87.1 °F 90.6 °F 68.0 °F 53% 30.05 in 10.0 mi Variable 6.9 mph 20.7 mph N/A   Mostly Cloudy
4:53 PM 86.0 °F 89.4 °F 68.0 °F 55% 30.05 in 10.0 mi ENE 10.4 mph 23.0 mph N/A   Scattered Clouds
5:53 PM 84.0 °F 86.5 °F 66.9 °F 56% 30.06 in 10.0 mi East 8.1 mph 16.1 mph N/A   Partly Cloudy
6:53 PM 82.0 °F 84.5 °F 66.9 °F 60% 30.08 in 10.0 mi Variable 6.9 mph - N/A   Clear
7:53 PM 79.0 °F - 70.0 °F 74% 30.10 in 10.0 mi Variable 3.5 mph - N/A   Mostly Cloudy
8:20 PM 78.8 °F - 69.8 °F 74% 30.09 in 10.0 mi ENE 5.8 mph - N/A   Partly Cloudy
8:53 PM 78.1 °F - 70.0 °F 76% 30.12 in 10.0 mi Variable 5.8 mph - N/A   Scattered Clouds
9:53 PM 75.9 °F - 70.0 °F 82% 30.13 in 10.0 mi Variable 4.6 mph - N/A   Clear
10:53 PM 77.0 °F - 69.1 °F 76% 30.13 in 10.0 mi Variable 3.5 mph - N/A   Clear
11:53 PM 75.9 °F - 68.0 °F 76% 30.13 in 10.0 mi Variable 3.5 mph - N/A   Clear